Location: Newark
(51.3000°N, 178.2000°W)
Time: 01:39:38
(UTC+00:00)

ISS - Pass Details

Date: 13 May 2021
Orbit: 417 x 422 km, 51.6° (Epoch: 15 June)

Event Time Altitude Azimuth Distance (km) Brightness Sun altitude
Exits shadow 14:00:19 - 282° (WNW) 2,084 -0.4 -14.5°
Reaches altitude 10° 14:01:43 10° 280° (W) 1,509 -1.2 -14.4°
Maximum altitude 14:05:05 70° 197° (SSW) 453 -3.9 -14.1°
Drops below altitude 10° 14:08:28 10° 113° (ESE) 1,507 -0.8 -13.8°
Sets 14:10:34 0° 111° (ESE) 2,371 0.2 -13.6°
